TimeCDT,TemperatureF,Dew PointF,Humidity,Sea Level PressureIn,VisibilityMPH,Wind Direction,Wind SpeedMPH,Gust SpeedMPH,PrecipitationIn,Events,Conditions,WindDirDegrees,DateUTC
12:58 AM,76.3,72.3,87,30.02,10.0,West,5.8,-,N/A,,Clear,260,2013-07-23 05:58:00
1:58 AM,76.3,72.0,86,30.01,10.0,West,3.5,-,0.01,,Clear,280,2013-07-23 06:58:00
2:58 AM,78.4,73.8,85,30.01,10.0,WSW,8.1,-,N/A,,Scattered Clouds,240,2013-07-23 07:58:00
3:03 AM,78.8,73.4,83,30.00,10.0,WSW,8.1,-,N/A,,Mostly Cloudy,240,2013-07-23 08:03:00
3:18 AM,78.8,73.4,83,30.00,10.0,WSW,8.1,-,N/A,,Mostly Cloudy,250,2013-07-23 08:18:00
3:58 AM,79.7,75.0,86,30.01,10.0,West,8.1,-,N/A,,Overcast,260,2013-07-23 08:58:00
4:38 AM,80.6,75.2,84,30.01,10.0,West,10.4,-,N/A,,Scattered Clouds,260,2013-07-23 09:38:00
4:43 AM,80.6,75.2,84,30.00,10.0,West,8.1,-,N/A,,Mostly Cloudy,260,2013-07-23 09:43:00
4:58 AM,80.6,76.1,86,30.02,10.0,West,6.9,-,N/A,,Mostly Cloudy,270,2013-07-23 09:58:00
5:28 AM,80.6,77.0,89,30.02,10.0,West,5.8,-,N/A,,Mostly Cloudy,270,2013-07-23 10:28:00
5:33 AM,80.6,77.0,89,30.02,10.0,WNW,5.8,-,N/A,,Mostly Cloudy,290,2013-07-23 10:33:00
5:48 AM,80.6,77.0,89,30.02,10.0,West,8.1,-,N/A,,Scattered Clouds,280,2013-07-23 10:48:00
5:58 AM,80.4,76.3,87,30.03,10.0,West,8.1,-,N/A,,Partly Cloudy,280,2013-07-23 10:58:00
6:58 AM,80.6,76.1,86,30.03,10.0,WNW,5.8,-,N/A,,Clear,290,2013-07-23 11:58:00
7:27 AM,82.4,77.0,84,30.03,9.0,WNW,5.8,-,N/A,Rain,Light Rain,300,2013-07-23 12:27:00
7:36 AM,82.4,77.0,84,30.03,10.0,West,6.9,-,N/A,,Clear,270,2013-07-23 12:36:00
7:58 AM,82.2,76.3,82,30.04,10.0,WNW,8.1,-,0.13,,Partly Cloudy,290,2013-07-23 12:58:00
8:58 AM,83.8,74.8,74,30.04,10.0,NW,12.7,19.6,N/A,,Partly Cloudy,310,2013-07-23 13:58:00
9:58 AM,85.8,73.9,67,30.05,10.0,WNW,13.8,19.6,N/A,,Scattered Clouds,300,2013-07-23 14:58:00
10:03 AM,86.0,73.4,66,30.03,10.0,WNW,12.7,19.6,N/A,,Mostly Cloudy,300,2013-07-23 15:03:00
10:13 AM,86.0,75.2,70,30.03,10.0,WNW,11.5,-,N/A,,Scattered Clouds,290,2013-07-23 15:13:00
10:53 AM,87.8,73.4,62,30.03,10.0,NW,12.7,-,N/A,,Mostly Cloudy,310,2013-07-23 15:53:00
10:58 AM,87.1,73.9,65,30.05,10.0,WNW,12.7,-,N/A,,Mostly Cloudy,290,2013-07-23 15:58:00
11:23 AM,86.0,73.4,66,30.03,10.0,WNW,12.7,-,N/A,,Scattered Clouds,300,2013-07-23 16:23:00
11:58 AM,88.0,73.4,62,30.03,10.0,West,8.1,-,N/A,,Mostly Cloudy,270,2013-07-23 16:58:00
12:13 PM,87.8,73.4,62,30.01,10.0,WSW,11.5,-,N/A,,Mostly Cloudy,240,2013-07-23 17:13:00
12:28 PM,87.8,75.2,66,30.01,10.0,WSW,12.7,-,N/A,,Mostly Cloudy,240,2013-07-23 17:28:00
12:58 PM,87.6,75.9,68,30.01,10.0,SW,15.0,-,N/A,,Scattered Clouds,230,2013-07-23 17:58:00
1:58 PM,87.6,76.6,70,29.99,10.0,WSW,13.8,21.9,N/A,,Partly Cloudy,240,2013-07-23 18:58:00
2:58 PM,86.9,76.3,71,29.97,10.0,WSW,16.1,26.5,N/A,,Clear,250,2013-07-23 19:58:00
3:58 PM,86.5,75.2,69,29.96,10.0,West,20.7,27.6,N/A,,Clear,260,2013-07-23 20:58:00
4:58 PM,86.0,75.7,71,29.95,10.0,WSW,18.4,26.5,N/A,,Clear,250,2013-07-23 21:58:00
5:58 PM,84.9,75.9,74,29.95,10.0,West,16.1,25.3,N/A,,Partly Cloudy,260,2013-07-23 22:58:00
6:20 PM,84.2,75.2,74,29.97,10.0,NW,17.3,20.7,N/A,Thunderstorm,Partly Cloudy,310,2013-07-23 23:20:00
6:21 PM,84.2,75.2,74,29.98,10.0,NNW,28.8,41.4,N/A,Thunderstorm,Squalls,340,2013-07-23 23:21:00
6:23 PM,84.2,73.4,70,30.00,10.0,NNW,31.1,41.4,N/A,Rain-Thunderstorm,Light Rain,330,2013-07-23 23:23:00
6:24 PM,84.2,73.4,70,29.99,9.0,North,31.1,41.4,N/A,Rain-Thunderstorm,Light Rain,350,2013-07-23 23:24:00
6:30 PM,80.6,69.8,70,29.99,0.5,North,24.2,41.4,N/A,Rain-Thunderstorm,Heavy Thunderstorms and Rain,360,2013-07-23 23:30:00
6:57 PM,71.6,68.0,88,29.99,3.0,NNE,9.2,-,2.59,Rain-Thunderstorm,Light Thunderstorms and Rain,20,2013-07-23 23:57:00
7:32 PM,71.6,68.0,88,29.96,6.0,SSE,9.2,-,N/A,Rain-Thunderstorm,Light Rain,160,2013-07-24 00:32:00
7:43 PM,71.6,68.0,88,29.96,10.0,ESE,3.5,-,N/A,,Mostly Cloudy,110,2013-07-24 00:43:00
7:51 PM,71.6,68.0,88,29.96,10.0,SSE,4.6,-,N/A,Rain,Light Rain,150,2013-07-24 00:51:00
7:55 PM,71.6,68.0,88,29.97,10.0,South,4.6,-,N/A,,Clear,180,2013-07-24 00:55:00
7:58 PM,72.5,68.2,86,29.98,10.0,South,3.5,-,2.69,,Clear,190,2013-07-24 00:58:00
8:33 PM,73.4,68.0,83,29.95,10.0,Calm,Calm,-,N/A,Rain,Light Rain,0,2013-07-24 01:33:00
8:34 PM,73.4,68.0,83,29.95,10.0,Calm,Calm,-,N/A,,Partly Cloudy,0,2013-07-24 01:34:00
8:58 PM,74.1,68.2,82,29.97,10.0,Calm,Calm,-,0.00,,Clear,0,2013-07-24 01:58:00
9:36 PM,73.4,69.8,88,29.96,10.0,ENE,2.3,-,N/A,,Light Drizzle,60,2013-07-24 02:36:00
9:46 PM,73.4,69.8,88,29.96,10.0,ENE,2.3,-,N/A,,Clear,70,2013-07-24 02:46:00
9:58 PM,73.9,68.7,84,29.97,10.0,ESE,2.3,-,0.00,,Clear,120,2013-07-24 02:58:00
10:17 PM,73.4,69.8,88,29.96,10.0,ESE,3.5,-,N/A,,Light Drizzle,120,2013-07-24 03:17:00
10:32 PM,75.2,69.8,83,29.96,10.0,East,2.3,-,N/A,,Clear,100,2013-07-24 03:32:00
10:58 PM,75.0,69.8,84,29.96,10.0,South,1.2,-,0.00,,Clear,180,2013-07-24 03:58:00
11:53 PM,77.0,69.8,78,29.95,10.0,South,5.8,-,N/A,,Mostly Cloudy,190,2013-07-24 04:53:00
11:58 PM,77.4,70.7,80,29.96,10.0,South,6.9,-,N/A,,Mostly Cloudy,190,2013-07-24 04:58:00